Temp
-13 -13 -13 -13 -13 -13 -13 -13 -13 -13 -13 -13 -13 -13 -13 -13 -13 -13 -13 -13 -14 -14 -14 -13 -13 -13 -13 -13 -13 -13 -13 -12 -12 -13 -13 -13 -13 -13
-13 -13 -13 -13 -13 -13 -13 -13 -13 -13 -13 -13 -13 -13 -13 -13 -13 -13 -13 -13 -13 -13 -13 -13 -13 -13 -13 -13 -12 -12 -12 -13 -13 -12 -13 -13 -13 -13
-13 -13 -13 -13 -13 -13 -13 -13 -13 -13 -14 -14 -14 -14 -13 -13 -13 -13 -13 -13 -13 -13 -13 -13 -13 -13 -13 -13 -13 -12 -12 -13 -13 -13 -13 -13 -13 -13
-13 -13 -13 -13 -13 -13 -13 -13 -13 -13 -13 -14 -14 -13 -14 -14 -14 -14 -13 -13 -13 -13 -13 -13 -13 -13 -13 -13 -13 -12 -12 -12 -13 -13 -13 -13 -13 -13
-14 -14 -13 -13 -13 -13 -13 -13 -13 -13 -13 -13 -14 -14 -14 -14 -14 -14 -14 -14 -14 -14 -14 -13 -13 -13 -14 -13 -13 -13 -13 -13 -13 -13 -13 -13 -13 -13
-14 -14 -14 -14 -14 -14 -14 -14 -14 -14 -13 -14 -14 -14 -15 -15 -14 -15 -16 -16 -15 -15 -15 -15 -15 -15 -15 -14 -14 -14 -14 -14 -14 -14 -14 -14 -14 -14
-15 -15 -15 -15 -15 -15 -15 -15 -15 -15 -14 -14 -14 -15 -16 -16 -16 -17 -17 -17 -17 -17 -16 -16 -16 -16 -16 -16 -16 -16 -15 -15 -15 -15 -14 -14 -14 -15
-16 -16 -16 -16 -16 -16 -16 -16 -16 -16 -16 -15 -15 -16 -17 -18 -18 -18 -18 -19 -18 -18 -18 -18 -17 -17 -17 -16 -16 -16 -16 -16 -16 -16 -16 -15 -15 -15
-17 -17 -17 -17 -17 -17 -17 -17 -17 -17 -17 -17 -17 -18 -18 -19 -19 -19 -19 -19 -19 -19 -19 -19 -18 -18 -17 -17 -17 -17 -17 -16 -16 -16 -16 -16 -16 -16
-18 -18 -18 -18 -18 -19 -18 -18 -18 -18 -19 -18 -18 -19 -19 -20 -21 -21 -21 -21 -21 -21 -20 -19 -20 -19 -19 -18 -17 -17 -17 -17 -17 -16 -16 -16 -16 -16
-19 -19 -19 -19 -20 -20 -20 -20 -20 -20 -21 -20 -20 -20 -21 -22 -22 -22 -22 -22 -22 -21 -21 -21 -21 -20 -20 -19 -19 -19 -18 -18 -17 -17 -17 -17 -17 -17
-20 -20 -20 -20 -21 -21 -21 -21 -21 -22 -22 -22 -22 -22 -22 -23 -23 -23 -24 -23 -23 -22 -22 -22 -21 -21 -21 -21 -20 -20 -20 -19 -19 -18 -18 -17 -17 -17
-21 -21 -22 -22 -22 -22 -23 -23 -23 -23 -23 -23 -23 -24 -24 -24 -25 -25 -25 -24 -24 -24 -24 -23 -22 -22 -22 -21 -21 -21 -20 -20 -20 -20 -19 -19 -18 -18
-22 -23 -23 -23 -23 -23 -24 -24 -24 -24 -24 -24 -24 -24 -25 -25 -26 -26 -26 -26 -26 -25 -25 -24 -23 -23 -23 -22 -22 -22 -22 -21 -21 -20 -20 -20 -20 -19
-24 -24 -24 -24 -25 -24 -24 -25 -25 -26 -26 -25 -25 -25 -25 -25 -26 -26 -27 -27 -27 -27 -26 -26 -25 -24 -24 -23 -23 -23 -23 -22 -21 -21 -21 -21 -20 -20
-26 -25 -25 -25 -25 -26 -26 -27 -26 -26 -26 -26 -27 -26 -26 -26 -26 -26 -27 -27 -26 -26 -27 -27 -26 -26 -25 -24 -24 -23 -23 -23 -23 -22 -22 -21 -21 -21
-26 -26 -26 -27 -27 -27 -27 -27 -28 -28 -28 -28 -28 -27 -27 -27 -27 -27 -27 -27 -27 -26 -26 -27 -27 -26 -26 -25 -24 -24 -24 -24 -24 -23 -23 -22 -21 -21
-27 -28 -28 -28 -28 -28 -28 -29 -29 -29 -29 -29 -29 -29 -29 -29 -29 -28 -28 -28 -27 -27 -27 -27 -27 -27 -26 -25 -25 -25 -25 -24 -24 -24 -23 -23 -23 -22
-30 -30 -30 -30 -30 -30 -30 -30 -30 -30 -31 -31 -31 -30 -30 -30 -30 -29 -29 -29 -28 -28 -28 -28 -28 -27 -27 -26 -26 -26 -25 -25 -24 -24 -24 -23 -23 -23
-31 -31 -31 -31 -31 -31 -32 -32 -32 -32 -32 -32 -32 -32 -31 -31 -31 -30 -30 -30 -29 -29 -29 -29 -29 -29 -28 -28 -27 -27 -26 -26 -25 -25 -24 -24 -23 -23
-33 -33 -34 -33 -33 -33 -33 -33 -33 -33 -33 -33 -33 -32 -32 -31 -31 -31 -31 -31 -31 -30 -30 -30 -30 -30 -29 -28 -28 -28 -28 -27 -27 -26 -26 -25 -25 -24
-34 -34 -35 -35 -34 -34 -34 -34 -34 -34 -34 -34 -33 -33 -33 -32 -32 -32 -32 -32 -32 -31 -31 -31 -31 -31 -30 -30 -30 -29 -29 -29 -28 -28 -27 -27 -26 -26
-35 -35 -35 -35 -35 -35 -34 -34 -34 -33 -34 -33 -33 -33 -33 -33 -33 -32 -32 -32 -32 -32 -32 -32 -32 -32 -31 -31 -31 -31 -31 -31 -31 -30 -29 -29 -28 -27
Height
5675 5674 5674 5674 5674 5674 5675 5675 5675 5674 5672 5670 5670 5671 5670 5670 5671 5672 5673 5672 5673 5672 5673 5673 5673 5673 5674 5674 5676 5677 5678 5678 5679 5679 5679 5681 5681 5682
5669 5667 5666 5665 5664 5663 5663 5662 5662 5662 5663 5659 5659 5659 5659 5658 5658 5659 5660 5660 5660 5660 5661 5660 5660 5661 5662 5663 5664 5666 5667 5668 5669 5669 5670 5672 5673 5674
5663 5661 5659 5657 5655 5654 5652 5651 5651 5650 5650 5649 5646 5644 5644 5645 5646 5646 5645 5645 5646 5646 5647 5647 5648 5649 5649 5650 5651 5653 5654 5656 5657 5659 5660 5662 5664 5665
5653 5651 5650 5648 5646 5644 5642 5640 5638 5636 5636 5635 5634 5632 5631 5630 5629 5630 5630 5631 5631 5631 5632 5633 5634 5634 5635 5636 5638 5639 5641 5643 5644 5646 5648 5650 5652 5654
5641 5639 5637 5636 5634 5632 5630 5627 5625 5623 5622 5621 5618 5616 5614 5613 5613 5613 5612 5612 5612 5613 5614 5615 5616 5618 5619 5621 5623 5625 5626 5628 5629 5632 5634 5636 5638 5641
5626 5624 5622 5621 5619 5617 5616 5613 5611 5608 5605 5603 5600 5599 5597 5595 5594 5594 5594 5595 5594 5594 5595 5596 5597 5598 5600 5603 5606 5608 5610 5612 5613 5615 5618 5621 5623 5626
5611 5609 5607 5604 5602 5600 5599 5596 5594 5591 5587 5584 5582 5580 5577 5576 5575 5574 5575 5576 5575 5577 5576 5576 5579 5579 5581 5584 5586 5589 5591 5594 5596 5598 5601 5604 5606 5609
5593 5591 5588 5585 5583 5580 5578 5576 5574 5571 5568 5566 5563 5559 5555 5554 5556 5557 5556 5556 5560 5556 5560 5560 5561 5561 5563 5565 5567 5570 5572 5575 5577 5581 5583 5586 5589 5591
5574 5571 5568 5564 5561 5559 5557 5554 5550 5547 5544 5544 5543 5538 5538 5531 5532 5534 5535 5537 5537 5537 5540 5544 5541 5545 5547 5548 5550 5551 5553 5557 5560 5563 5566 5569 5572 5575
5553 5550 5547 5542 5539 5537 5535 5531 5528 5523 5518 5519 5519 5516 5514 5512 5510 5511 5513 5514 5517 5516 5515 5526 5520 5524 5526 5530 5533 5535 5536 5539 5542 5545 5548 5551 5554 5557
5530 5527 5524 5520 5515 5512 5511 5508 5506 5500 5495 5495 5494 5492 5489 5488 5486 5487 5489 5490 5495 5496 5495 5498 5503 5503 5504 5507 5512 5515 5517 5520 5523 5527 5530 5533 5536 5540
5507 5503 5498 5495 5491 5488 5485 5484 5483 5477 5471 5470 5468 5467 5465 5464 5462 5462 5464 5467 5467 5474 5476 5476 5479 5481 5485 5488 5489 5493 5496 5499 5503 5507 5510 5515 5518 5522
5484 5480 5474 5470 5467 5464 5459 5457 5453 5451 5448 5445 5444 5442 5441 5439 5438 5437 5437 5440 5443 5448 5452 5452 5458 5460 5461 5467 5470 5471 5475 5478 5483 5487 5490 5494 5498 5502
5457 5454 5451 5447 5443 5439 5435 5430 5425 5419 5418 5417 5416 5417 5415 5414 5412 5411 5412 5414 5416 5421 5424 5427 5434 5437 5438 5443 5450 5451 5452 5457 5462 5466 5469 5473 5478 5482
5429 5426 5425 5422 5416 5412 5408 5402 5395 5390 5387 5386 5387 5388 5386 5386 5385 5384 5385 5386 5390 5395 5398 5401 5405 5411 5415 5420 5425 5429 5433 5436 5440 5446 5448 5452 5457 5461
5401 5402 5399 5393 5388 5382 5376 5372 5367 5362 5358 5358 5357 5358 5358 5358 5358 5358 5359 5360 5361 5368 5372 5374 5377 5381 5388 5394 5399 5408 5410 5414 5418 5422 5426 5433 5438 5441
5373 5373 5369 5363 5359 5354 5348 5345 5342 5338 5334 5331 5329 5330 5331 5331 5333 5332 5332 5334 5336 5340 5346 5350 5350 5353 5359 5365 5374 5383 5387 5391 5395 5399 5403 5411 5416 5420
5346 5343 5342 5338 5333 5329 5324 5321 5317 5314 5311 5308 5308 5307 5307 5307 5308 5309 5309 5310 5312 5316 5319 5323 5327 5327 5330 5339 5347 5355 5359 5366 5369 5375 5383 5390 5394 5397
5322 5319 5317 5314 5311 5308 5303 5299 5297 5294 5290 5288 5287 5287 5286 5286 5287 5289 5289 5289 5291 5293 5296 5297 5301 5304 5308 5315 5321 5325 5333 5339 5345 5352 5359 5366 5372 5375
5302 5299 5298 5295 5292 5289 5285 5282 5278 5275 5272 5271 5270 5270 5269 5268 5269 5270 5271 5271 5272 5274 5275 5277 5280 5283 5287 5293 5295 5303 5308 5314 5322 5329 5336 5343 5350 5355
5286 5283 5280 5277 5275 5271 5268 5265 5262 5259 5257 5256 5255 5254 5255 5254 5254 5254 5255 5256 5256 5258 5259 5262 5264 5265 5269 5273 5280 5285 5288 5294 5301 5308 5314 5322 5328 5334
5270 5267 5266 5263 5260 5256 5254 5250 5248 5246 5245 5243 5242 5242 5242 5241 5241 5241 5242 5244 5244 5245 5247 5249 5251 5253 5257 5261 5265 5269 5273 5279 5285 5291 5298 5304 5310 5316
5255 5253 5251 5249 5246 5242 5240 5238 5236 5235 5234 5233 5233 5232 5232 5232 5232 5233 5233 5233 5235 5236 5238 5240 5243 5245 5249 5252 5255 5260 5264 5269 5274 5280 5284 5288 5294 5299
Wind_Speed
22 24 24 24 27 28 30 32 33 34 37 39 41 41 41 42 42 44 46 48 48 49 49 47 46 44 44 43 42 40 38 36 34 33 31 29 28 27
24 25 26 28 30 32 33 34 36 37 36 42 44 45 45 46 46 45 44 45 45 46 46 47 48 48 47 46 45 43 41 39 40 38 36 35 32 30
31 30 31 31 32 33 35 37 39 41 41 42 45 48 49 50 51 51 51 50 48 47 46 46 47 49 49 49 47 46 44 41 42 42 41 40 39 37
36 36 37 38 39 39 39 41 42 43 44 45 47 50 52 54 55 55 58 59 58 57 54 52 51 50 49 49 49 49 48 47 46 46 46 45 42 43
38 40 41 41 44 45 48 49 49 50 51 52 54 54 56 57 57 57 60 61 61 61 61 61 60 57 55 54 52 52 51 50 50 49 48 47 46 45
43 43 44 46 47 48 51 53 55 58 59 60 62 62 63 63 64 62 57 58 62 64 62 61 60 60 60 60 58 57 55 54 54 54 52 51 52 53
49 49 50 52 54 54 57 60 62 65 68 68 70 70 71 71 69 66 63 59 57 58 60 62 61 61 60 56 55 56 57 58 58 59 60 58 57 56
55 56 57 58 59 62 64 66 68 70 73 76 77 78 77 76 74 71 64 59 60 60 58 57 56 56 56 57 58 57 53 52 53 54 55 56 56 57
62 63 64 65 66 66 67 70 72 73 75 76 76 77 77 76 76 71 67 64 60 62 62 57 61 58 57 55 54 55 56 57 58 57 55 54 55 55
68 69 70 71 72 70 70 72 74 75 76 77 78 80 78 77 72 69 66 62 61 62 64 59 63 62 63 61 60 58 56 55 55 56 57 56 53 55
72 73 74 75 75 74 73 73 75 75 77 79 80 80 79 77 73 70 66 66 63 62 63 62 60 60 61 62 62 62 62 60 58 56 54 55 52 50
73 74 76 76 75 73 74 74 73 75 78 79 80 80 80 77 75 73 69 67 66 64 62 63 61 60 59 59 61 62 62 62 62 61 60 59 57 57
75 74 74 75 75 74 74 74 76 78 80 82 81 80 79 78 75 74 73 72 69 67 65 66 64 63 63 60 60 62 62 63 63 64 64 63 64 65
74 74 74 74 75 75 75 78 82 84 83 81 80 77 77 77 77 77 75 74 73 71 69 69 66 65 67 67 64 63 63 62 62 62 63 64 66 66
74 74 75 76 79 80 81 83 83 81 79 78 76 74 75 76 77 79 79 79 77 75 74 73 71 69 68 68 68 67 66 66 65 63 62 61 60 61
76 78 80 82 84 85 81 76 74 74 74 73 73 74 74 74 74 75 77 78 79 78 76 76 76 74 72 71 71 69 70 69 69 68 67 65 63 62
84 83 84 83 78 73 71 70 68 67 69 70 71 71 70 70 68 68 69 70 71 72 72 72 75 76 74 73 69 68 70 72 72 72 71 69 68 67
83 79 74 70 67 67 66 63 61 61 61 63 63 63 63 61 61 61 62 63 65 66 66 67 68 71 73 71 69 68 68 68 70 71 71 71 71 71
72 69 66 62 60 57 56 56 56 55 55 55 55 55 56 55 55 55 56 57 58 58 57 60 61 63 65 66 66 67 66 67 68 67 66 64 65 68
62 60 57 53 51 51 51 52 51 50 49 48 48 48 49 50 50 49 48 48 49 48 49 50 50 51 53 54 58 60 62 62 64 65 65 63 62 62
52 50 49 49 49 48 47 46 45 43 41 40 39 38 39 41 42 42 41 40 39 38 38 38 39 42 42 45 46 47 50 54 56 59 62 63 63 63
47 47 45 45 43 41 40 40 39 38 37 35 34 33 32 33 33 33 32 30 30 32 30 30 32 33 33 33 34 36 38 41 43 46 50 55 57 58
44 43 42 39 37 36 36 34 33 31 29 28 28 27 27 26 26 26 25 25 24 24 24 24 24 26 25 25 27 28 29 29 31 35 38 43 46 48
Wind_Direction
298 294 291 288 284 282 282 278 274 272 273 272 271 271 271 270 269 267 265 265 267 268 268 268 267 267 267 267 268 268 268 266 267 265 261 260 263 266
307 299 294 290 286 283 280 278 276 274 273 278 280 278 275 274 273 271 269 269 269 266 265 264 264 265 265 265 266 267 268 267 265 263 263 261 261 262
297 294 293 293 291 289 286 284 282 281 280 275 273 275 276 276 276 275 273 272 269 268 266 265 264 265 266 265 266 266 265 264 264 263 261 262 263 261
292 291 290 288 286 285 282 281 282 282 282 279 278 279 279 278 276 275 273 273 272 271 269 268 266 265 265 265 265 265 265 265 264 263 261 261 264 262
289 288 286 285 286 286 286 284 282 279 277 277 277 276 276 275 275 275 275 274 272 270 269 267 266 264 263 264 264 264 264 264 263 263 261 261 261 260
284 285 282 280 281 281 283 281 279 278 277 276 275 274 273 272 273 272 270 270 270 270 268 267 266 263 261 260 260 259 260 260 260 259 258 261 265 264
283 284 286 285 284 281 282 282 281 280 279 277 277 276 276 275 272 272 272 268 266 266 267 265 264 264 263 258 256 256 256 256 256 257 259 260 263 262
282 283 283 284 283 282 280 280 279 278 278 277 277 279 280 279 277 277 274 270 267 264 262 265 263 264 262 261 262 259 256 255 255 258 258 259 259 255
281 280 280 281 282 281 281 280 279 278 277 277 277 279 278 278 277 276 274 271 267 266 263 262 262 260 260 260 260 259 257 256 256 257 258 255 255 254
281 281 280 280 281 282 281 282 281 281 280 280 281 280 278 277 275 273 270 266 263 263 262 259 262 261 260 259 258 258 259 258 256 255 255 255 255 253
281 282 282 281 281 282 282 282 282 282 281 280 279 277 277 277 275 272 269 266 263 262 264 262 260 259 260 261 256 254 255 254 254 254 254 252 251 252
284 283 281 281 281 282 284 283 283 281 280 278 277 276 276 275 274 272 268 266 264 261 260 260 260 259 256 256 257 255 252 252 252 250 248 249 249 250
283 281 281 280 281 283 283 284 285 282 279 277 275 275 275 275 273 271 270 269 266 263 260 257 256 256 256 253 254 256 254 253 254 253 252 250 248 248
282 280 280 280 281 282 284 285 283 281 280 277 275 274 273 272 272 270 269 267 266 265 262 261 257 254 253 253 252 252 254 255 254 253 253 253 252 251
279 280 280 283 284 285 283 282 283 281 279 278 277 275 273 270 269 267 266 266 265 265 264 262 259 256 253 251 250 250 250 253 253 253 254 253 254 255
283 284 285 286 284 283 286 285 283 281 280 279 277 275 273 271 269 268 266 265 265 265 263 263 263 261 256 253 251 249 250 249 250 251 252 253 253 253
285 286 285 285 287 287 285 284 282 279 278 277 276 275 273 271 269 268 267 266 265 264 263 261 261 260 259 258 255 253 250 250 250 250 250 250 252 253
284 286 287 287 287 286 285 284 282 280 277 275 274 273 273 272 272 271 270 269 267 265 263 261 258 258 259 257 257 254 251 250 250 250 250 250 251 252
285 287 289 288 287 286 285 284 282 280 277 276 274 273 273 273 272 271 270 270 269 268 266 262 259 257 256 256 255 254 250 248 247 248 249 249 249 250
287 287 288 289 288 287 286 285 284 283 282 281 278 276 275 274 273 273 272 270 269 267 265 263 262 260 257 253 252 251 251 248 245 244 244 244 245 246
286 288 290 290 290 289 288 287 286 284 282 280 278 275 274 273 272 271 271 269 268 267 264 260 257 256 255 253 252 249 248 247 245 243 243 243 243 243
286 288 290 292 292 288 285 283 281 280 280 279 277 274 272 270 270 271 271 269 266 263 259 255 250 249 249 248 245 243 242 241 243 244 245 245 246 247
288 290 292 292 288 286 284 282 281 281 280 278 277 276 274 273 272 270 270 268 265 260 257 251 246 246 246 243 241 240 239 233 233 240 242 244 246 248